Location: Newark
(47.4833°N, 7.5167°E)
Time: 03:36:38
(UTC+00:00)

N. Korean satellite - Pass Details

Date: 26 October 2019
Orbit: 456 x 506 km, 97.2° (Epoch: 18 November)

Event Time Altitude Azimuth Distance (km) Brightness Sun altitude
Rises 17:34:03 0° 208° (SSW) 2,473 10.6 -12.6°
Reaches altitude 10° 17:36:46 10° 232° (SW) 1,611 10.1 -13.0°
Maximum altitude 17:38:50 15° 269° (W) 1,344 10.1 -13.4°
Drops below altitude 10° 17:40:55 10° 306° (NW) 1,633 10.0 -13.7°
Sets 17:43:43 0° 330° (NNW) 2,528 10.6 -14.2°
